Ак-Шыйрак

Kyrgyzstan     41˚51′00″N   78˚43′01″E
temp.,
°C
wind,
m/s
gust,
m/s
humid.,
%
clouds,
%
prec.,
mm/h
press.,
hPa
HPBL,
m
2 december, wed
wed200:00−18˚ssw336941 0.0 103620
03:00−17˚ssw238064 0.0 103520
06:00−17˚ssw338482 0.0 103620
09:00−17˚ssw33850 0.0 103720
12:00−13˚sw23830 0.0 103396
15:00−12˚ssw22810 0.0 103021
18:00−16˚ssw228217 0.0 103220
21:00−18˚ssw22852 0.0 103420
3 december, thu
thu300:00−18˚ssw22891 0.0 103320
03:00−18˚sw33920 0.0 103220
06:00−18˚ssw239522 0.0 103220
09:00−17˚sw33910 0.0 103320
12:00−12˚sw33852 0.0 1030122
15:00−11˚sw33820 0.0 102831
18:00−16˚ssw33822 0.0 103020
21:00−17˚ssw33922 0.0 103120
4 december, fri
fri400:00−16˚sw339451 0.0 102920
03:00−16˚sw3388100 0.0 102720
06:00−15˚ssw3384100 0.0 102620
09:00−13˚ssw1184100 0.0 102520
12:00−10˚wnw1181100 0.0 1022106
15:00−10˚sw1184100 0.0 102021
18:00−14˚sw1179100 0.0 102221
21:00−14˚ssw2281100 0.0 102420
5 december, sat
sat500:00−15˚ssw3489100 0.0 102521
03:00−17˚ssw448744 0.0 102624
06:00−18˚ssw347825 0.0 102720
09:00−17˚sw44720 0.0 102823
12:00−12˚sw33700 0.0 102491
15:00−13˚wsw11720 0.0 102220
18:00−17˚ssw116521 0.0 102520
21:00−16˚s2254100 0.0 102620
6 december, sun
sun600:00−17˚s3359100 0.0 102720
03:00−18˚ssw2260100 0.0 102720
06:00−18˚ssw2361100 0.0 102820
09:00−16˚ssw3359100 0.0 103020
12:00−12˚sw3466100 0.0 1028115
15:00−13˚sw126398 0.0 102821
18:00−17˚s225861 0.0 103020
21:00−18˚ssw225298 0.0 103220